Theta_e
303 303 303 303 303 303 304 304 305 306 305 304 303 302 301 300 299 300 300 300 301 302 303 303 303 303 301 301 301 302 303 304 305 306 307 308 308 308 309 309 310 311
302 302 303 303 303 303 304 304 305 305 305 304 303 302 301 299 299 300 300 300 301 302 302 303 303 303 301 301 301 302 303 304 304 305 306 307 307 307 307 308 309 310
301 302 302 302 303 304 304 304 304 305 305 304 304 302 300 299 299 299 300 301 302 302 302 302 303 303 302 302 302 302 302 303 304 304 306 306 306 307 306 306 307 308
302 301 302 302 303 304 304 304 304 304 305 304 304 302 300 299 299 299 300 301 302 301 301 301 302 302 302 302 303 302 302 303 303 304 305 305 305 306 305 304 305 306
301 301 302 302 303 304 303 303 303 303 303 303 302 301 299 299 299 299 300 301 301 301 300 300 301 301 301 301 301 301 302 302 303 303 304 304 304 305 305 304 304 305
301 301 302 302 303 303 303 303 302 302 301 300 301 301 300 299 299 299 300 301 301 300 299 299 299 300 299 299 300 300 301 302 302 303 304 303 303 304 304 303 303 305
301 301 302 302 302 303 303 303 302 301 300 299 299 299 299 299 299 299 300 300 300 298 297 298 299 299 299 299 299 300 301 301 302 302 303 302 302 303 303 303 303 304
301 301 301 301 302 302 302 302 301 300 299 299 298 298 298 298 298 298 299 299 299 297 296 297 299 299 300 299 299 300 300 301 301 302 302 301 301 302 303 303 303 304
301 300 300 301 301 301 301 301 300 299 299 298 298 298 298 298 298 298 298 298 299 297 296 296 298 299 299 300 300 299 300 300 301 301 301 300 301 301 302 302 303 305
300 300 300 300 300 300 300 299 299 299 298 298 297 297 297 297 297 297 297 298 298 297 295 296 297 298 299 299 299 299 299 300 300 300 300 300 300 300 300 301 302 305
300 300 300 300 299 299 299 299 298 298 298 297 297 297 296 296 296 296 296 297 296 295 294 295 297 297 297 298 299 299 299 299 299 299 299 299 299 299 299 300 302 305
300 300 300 299 299 299 298 298 298 297 297 297 296 296 296 295 296 295 296 296 296 294 293 295 296 296 296 298 299 299 299 299 299 298 298 299 299 298 298 299 302 304
300 299 299 299 298 298 298 298 297 297 296 296 296 296 295 295 295 295 295 295 295 294 293 295 296 296 297 299 299 298 298 298 298 298 298 298 298 298 298 299 301 304
300 299 299 299 298 298 298 297 297 296 296 296 296 295 294 294 294 294 294 294 294 294 294 295 297 296 297 299 298 297 297 297 297 297 298 298 298 298 299 300 301 303
299 299 299 298 298 298 297 297 296 296 296 296 296 295 294 294 293 293 293 293 294 294 294 295 296 296 296 297 296 296 297 297 296 297 298 298 298 298 299 300 302 304
299 299 299 298 298 297 297 296 296 296 296 295 295 294 293 293 293 293 293 292 293 293 293 294 295 295 296 297 296 296 296 296 296 296 296 297 297 298 299 299 301 303
299 299 298 298 297 297 296 296 295 296 295 295 294 293 293 293 293 293 292 292 292 292 293 294 294 295 297 297 297 297 296 295 295 295 295 295 296 296 297 298 300 303
298 298 297 297 297 296 296 295 296 296 295 294 293 292 292 292 292 292 292 292 292 292 292 293 294 296 297 298 298 298 296 295 295 295 294 294 295 295 295 297 299 301
297 297 297 297 296 296 295 295 295 295 294 293 292 292 291 292 291 291 292 292 292 291 292 293 294 296 297 298 298 298 297 296 295 295 294 293 294 295 295 296 297 299
297 296 296 296 296 295 295 295 295 294 293 292 292 292 291 291 291 291 291 292 291 291 291 292 293 295 297 298 298 299 298 297 296 295 294 293 293 293 295 295 295 297
296 296 296 296 296 295 294 294 294 293 292 292 291 291 291 290 290 290 290 291 291 291 291 292 292 295 298 298 298 299 299 298 297 295 294 294 293 293 293 294 294 295
296 295 295 296 295 294 294 294 294 293 292 291 291 291 290 290 290 290 290 290 291 291 291 290 291 294 297 298 298 299 300 299 297 295 294 294 293 293 293 293 294 295
295 295 295 295 294 294 293 293 293 292 292 291 291 290 290 290 290 290 290 291 291 291 290 289 290 292 296 297 298 299 300 299 297 296 295 294 293 292 292 292 293 293
294 295 295 294 294 293 293 292 292 292 291 291 291 290 290 289 289 290 291 291 291 290 289 289 288 290 293 296 296 297 298 298 297 297 296 294 293 293 292 293 293 293
294 294 294 293 293 292 292 292 292 291 291 291 291 290 290 289 289 289 290 291 290 290 289 289 288 289 292 294 295 296 297 297 298 298 296 293 292 293 293 294 294 293
293 293 293 293 293 292 292 292 291 291 291 290 290 290 289 289 289 289 289 290 290 290 290 289 288 288 290 293 294 295 296 297 298 297 293 291 290 291 292 293 294 293
Wind_Speed
19 19 18 17 18 19 20 20 19 18 18 21 24 26 29 30 30 31 31 30 29 29 30 31 31 31 31 30 29 29 30 30 31 31 30 30 30 29 28 28 27 25
18 17 16 17 17 18 19 19 19 18 17 20 23 26 29 31 30 31 30 30 29 29 31 32 32 32 31 31 31 30 29 30 32 32 30 30 31 31 30 30 29 27
17 16 17 17 17 18 19 19 19 18 17 18 22 27 29 30 30 30 30 30 30 30 32 33 32 33 32 31 31 30 29 29 31 31 31 31 31 32 32 31 30 28
17 17 17 17 17 18 18 19 20 20 18 19 22 26 27 29 30 30 30 30 31 31 33 33 33 32 32 32 32 32 31 30 31 31 31 32 33 33 33 32 30 29
17 17 17 17 17 17 17 19 20 21 20 20 21 24 26 28 29 29 29 30 31 32 33 34 34 32 33 32 32 32 32 32 33 31 30 32 34 34 33 33 31 30
16 17 17 17 17 17 17 18 19 20 21 21 20 21 23 26 27 28 29 29 31 33 33 34 35 33 33 33 32 32 32 32 33 32 31 33 35 34 33 33 33 33
17 17 17 16 16 16 17 17 18 20 22 22 21 21 22 24 25 27 29 29 31 32 31 33 35 34 34 33 33 34 34 32 33 34 35 35 37 37 36 35 36 37
16 16 17 16 16 16 17 17 18 20 21 22 23 22 22 22 23 26 28 29 31 31 30 32 34 34 34 33 33 35 35 34 34 35 36 37 38 37 37 36 36 37
16 16 16 16 16 17 17 18 18 19 20 22 23 23 23 23 23 24 26 28 31 32 31 32 34 34 34 34 33 34 34 34 34 34 34 36 37 36 36 37 38 38
16 16 16 16 16 17 17 18 18 18 19 21 23 24 24 23 23 23 25 28 32 33 31 31 33 33 34 33 33 33 33 33 34 33 33 34 35 35 35 36 37 38
16 16 16 16 16 16 17 17 17 18 19 20 23 24 24 25 25 25 26 28 31 31 30 31 33 33 33 33 33 33 33 33 33 33 33 35 35 36 36 35 36 37
15 15 15 16 16 16 16 17 17 18 19 20 21 23 24 25 26 27 27 29 31 30 29 31 32 32 32 33 33 34 34 33 34 33 34 35 37 39 39 37 37 38
13 14 14 15 15 15 15 16 17 18 19 20 21 22 24 26 26 27 28 29 31 31 31 31 32 32 33 32 32 33 33 33 34 35 36 36 38 42 43 41 38 38
11 12 12 13 13 13 14 15 16 18 19 20 21 23 24 26 27 27 28 29 31 32 32 32 32 33 33 31 31 32 32 31 33 35 37 38 38 42 45 45 41 38
9 10 11 11 12 13 14 15 16 17 19 20 22 23 24 25 27 28 29 30 31 32 33 33 32 32 31 29 29 30 30 30 32 34 36 38 39 41 44 46 44 39
8 9 10 10 12 13 14 15 16 17 19 21 23 24 25 26 28 29 30 30 31 33 34 34 33 30 27 25 26 28 29 30 32 34 35 36 39 41 43 44 44 41
7 8 9 10 11 13 13 15 16 17 20 21 23 24 26 27 28 30 30 30 30 31 33 35 34 30 26 25 26 28 29 30 32 34 36 35 35 38 41 43 44 42
7 8 9 10 11 12 13 14 15 17 20 22 23 25 26 27 29 29 30 30 30 31 33 35 34 30 26 25 27 29 30 30 32 35 36 36 35 35 39 42 43 42
7 8 9 10 11 12 13 14 15 18 20 22 23 24 26 27 28 28 29 31 31 32 33 35 35 31 27 25 26 28 29 30 33 35 35 36 37 36 36 40 43 42
6 7 9 9 10 11 13 14 16 18 20 22 23 25 27 28 29 29 29 29 30 31 32 34 35 32 27 26 26 27 29 30 31 33 35 36 36 36 34 36 40 41
6 7 8 9 9 11 13 14 16 18 19 21 22 24 26 27 28 29 29 28 29 31 33 34 34 32 29 26 26 26 27 29 30 32 34 36 36 36 34 32 36 39
6 7 8 9 9 11 13 14 16 17 19 20 21 23 25 27 28 29 30 28 28 31 33 33 33 33 30 27 26 26 27 28 30 31 33 34 35 36 34 32 33 37
6 7 8 9 10 12 14 15 16 17 18 19 21 23 25 27 28 29 30 30 30 30 31 32 32 32 30 28 27 26 27 29 30 31 32 33 33 35 35 33 32 35
6 8 9 9 11 13 14 15 16 17 18 19 21 23 24 26 28 29 30 31 30 29 28 30 32 32 30 29 28 27 28 29 30 31 32 32 32 34 35 35 33 34
8 9 10 11 12 13 14 15 16 17 18 19 20 22 23 25 28 30 30 31 30 29 28 29 31 32 30 30 29 28 27 29 30 31 32 32 33 33 35 36 35 35
10 10 11 12 13 14 15 16 17 17 18 19 21 22 23 25 27 29 30 31 30 30 30 29 30 31 30 29 29 28 27 26 28 30 31 31 31 32 34 35 35 35
Wind_Direction
17 17 18 19 23 27 30 32 30 32 33 27 23 18 12 7 6 10 11 8 9 9 9 9 8 6 3 1 4 5 4 4 3 2 357 356 354 351 350 350 350 352
17 19 22 23 26 30 34 35 31 32 32 25 19 16 10 7 9 13 11 9 9 10 12 11 9 9 5 3 5 5 4 3 2 3 359 358 356 352 351 351 350 351
25 26 28 29 31 34 37 38 34 32 28 20 15 12 10 9 11 14 13 12 11 11 12 12 10 10 7 7 8 7 5 2 1 1 359 359 358 353 352 352 350 352
33 32 33 34 35 37 38 37 34 32 26 18 13 9 9 13 14 14 13 13 13 12 11 11 12 10 8 8 9 9 7 3 1 2 359 358 359 355 354 353 351 353
35 36 37 37 40 39 37 36 33 29 24 18 11 6 9 14 15 13 12 14 16 13 10 12 13 11 8 7 8 8 7 5 4 4 0 358 359 358 356 353 352 354
37 39 39 39 41 39 37 36 31 26 21 16 12 8 9 13 14 14 15 15 15 12 10 13 14 12 10 8 9 9 7 4 3 4 3 360 359 360 358 355 354 355
41 39 39 39 38 37 36 33 28 24 20 17 17 15 12 11 12 14 16 15 13 11 11 13 14 14 12 10 9 9 8 5 3 5 6 3 1 1 0 358 356 356
41 39 38 36 35 34 34 30 25 22 20 18 20 19 15 13 10 11 14 14 13 11 11 14 16 15 14 12 9 9 8 6 5 6 7 6 4 3 1 0 359 359
41 38 34 32 33 34 32 28 24 21 21 21 20 19 17 15 11 9 12 14 15 14 12 13 15 15 15 15 12 10 8 7 7 8 8 8 7 5 3 3 4 5
40 35 32 31 32 31 29 28 25 22 23 23 21 19 18 18 16 15 15 17 19 18 13 12 14 13 14 16 14 12 11 10 9 10 11 12 10 8 7 8 9 10
39 35 34 33 31 30 29 29 27 25 24 24 22 20 20 20 21 21 20 20 21 19 12 12 14 12 12 14 15 16 17 14 11 12 15 17 16 14 14 14 16 17
39 36 35 33 31 32 33 31 28 25 24 25 24 22 22 22 23 24 23 22 22 19 14 13 15 13 12 15 18 20 20 17 15 17 20 21 22 21 21 22 25 25
40 37 34 33 34 36 36 32 28 26 25 27 28 26 25 24 25 25 24 24 23 22 19 17 17 16 16 18 22 22 19 18 18 20 23 25 26 27 28 30 31 32
39 35 33 34 36 36 34 30 28 29 29 29 32 31 28 27 26 25 25 26 26 25 24 22 22 21 18 17 20 21 19 19 21 22 26 29 28 30 34 34 34 37
35 33 33 35 36 35 32 30 30 32 33 34 35 34 32 29 28 28 27 27 27 28 28 27 27 24 20 17 19 21 21 21 24 26 28 30 30 31 36 37 37 40
32 32 34 36 38 35 31 30 33 36 38 38 38 36 33 31 31 30 29 27 27 28 28 29 28 24 22 23 25 28 27 26 28 31 31 32 32 31 34 38 40 42
33 33 37 40 40 36 31 31 35 39 41 41 40 37 34 33 33 31 29 27 27 28 28 29 28 26 26 30 33 35 35 31 31 33 34 33 33 31 30 35 40 43
36 36 42 45 43 38 32 33 37 41 44 43 40 38 35 35 34 32 29 28 28 29 30 29 28 28 31 34 37 40 40 37 36 36 36 35 35 33 30 32 38 42
41 41 47 49 47 40 34 36 42 46 47 45 41 39 38 36 35 32 30 29 29 29 30 29 29 30 33 36 40 44 44 42 41 40 38 38 38 37 33 31 36 39
44 44 51 55 50 42 39 43 50 53 51 47 44 42 39 37 35 33 32 30 28 29 31 31 29 29 34 38 41 46 48 46 45 43 41 40 40 41 37 31 33 37
45 46 56 61 53 43 44 50 55 56 54 50 47 45 42 39 36 34 33 31 29 29 32 32 29 30 35 39 40 46 50 50 48 45 44 43 41 42 40 33 32 37
48 52 62 64 54 47 50 56 58 58 55 52 50 48 45 42 39 36 34 33 32 31 31 30 29 30 35 38 41 45 50 52 51 48 45 43 41 42 43 38 33 35
55 63 71 66 55 53 58 62 61 59 55 51 50 49 47 44 42 39 37 36 36 34 29 28 29 30 33 38 41 44 48 51 51 50 48 44 42 41 44 44 37 35
72 74 75 68 62 64 67 68 65 61 56 53 50 49 48 46 44 43 42 40 39 36 31 29 29 30 33 37 40 42 47 49 50 51 49 46 44 43 45 46 43 40
82 80 76 72 71 73 74 72 69 65 59 56 53 52 51 50 47 46 44 41 40 39 37 33 32 31 33 36 38 41 45 48 50 51 48 44 42 43 45 46 46 45
85 82 78 77 78 80 80 76 73 69 64 60 57 55 54 53 50 48 46 43 41 41 41 37 34 33 35 37 39 42 44 48 51 51 47 43 41 42 43 44 45 45